Retour au catalogue

ONEWEB-0270

ActifCommunicationsPO
NORAD 48988·PAYLOAD·🇬🇧 United Kingdom

Lancé Jul 1, 2021 depuis Vostochny Cosmodrome

Loading…

Prochains Passages (prochaines 24 heures)

TLE

FraisSource: CelesTrak SupGP

Époque: Sep 14, 2026, 17:10 UTC

1 48988C 21060X   26257.71546713  .00003481  00000+0  91179-2 0  2573
2 48988  87.9143 211.0038 0002006  69.9007 325.9065 13.16590679    13

Suivez ONEWEB-0270 en temps réel avec AllMySat

Download on the App Store